Temp
24 25 25 25 25 25 25 25 25 25 25 25 24 23 23 23 23 24 24 24 24 24 23 23 23 23 23 22 22 22 21 21 20 20 20 20 20 20 20 19 19 19 19
24 24 25 24 24 24 25 25 25 24 24 24 23 23 23 23 24 24 24 24 24 23 23 22 22 22 22 22 22 22 22 21 20 20 20 20 20 20 20 20 20 19 19
24 24 24 24 24 24 24 25 24 24 25 24 23 23 23 24 23 24 24 24 24 23 22 22 22 22 21 21 20 21 21 21 20 20 20 20 20 20 20 20 20 20 20
24 24 24 24 24 24 24 24 24 25 24 24 23 23 23 24 24 24 24 24 23 22 21 21 21 21 21 20 20 20 20 20 20 20 20 20 20 19 19 19 20 20 20
23 23 24 24 24 24 24 24 24 23 23 23 22 22 23 23 23 23 23 22 22 21 21 20 20 20 20 20 20 20 20 20 20 20 20 20 20 19 20 19 19 20 20
23 23 23 23 24 24 24 24 23 23 23 22 22 22 22 22 22 22 22 22 21 21 21 20 19 19 19 19 19 19 20 19 19 19 19 19 19 19 19 19 19 19 19
22 23 23 23 24 24 23 23 23 23 23 22 22 22 21 21 21 21 21 21 20 20 20 20 20 20 19 18 18 18 19 19 19 18 18 18 18 18 18 18 19 19 19
22 23 23 23 23 23 23 23 23 23 23 22 22 21 21 21 20 20 20 20 20 20 20 19 20 20 20 19 17 17 18 18 18 18 17 17 17 17 17 17 18 18 18
22 22 23 22 23 22 23 23 23 22 22 22 22 21 20 21 19 19 19 19 19 19 19 19 20 20 20 19 18 17 16 17 17 18 17 17 17 17 17 16 17 17 18
21 22 23 23 23 22 23 23 23 22 22 21 22 22 21 21 20 21 19 19 19 19 19 19 20 20 20 19 18 17 16 16 16 17 17 17 17 17 16 16 16 16 17
21 22 22 23 23 23 23 23 22 22 22 21 22 22 21 21 21 20 20 19 19 18 19 19 20 20 19 19 18 17 16 16 15 16 16 16 16 16 16 16 16 16 16
21 21 22 23 23 23 23 23 22 22 22 21 22 22 22 22 20 20 20 19 19 18 19 19 20 19 19 19 18 18 18 18 17 16 15 15 15 15 16 16 15 15 15
22 22 22 23 23 23 23 22 22 22 22 22 22 22 22 22 22 21 20 19 19 19 19 19 19 19 19 19 18 18 18 18 17 17 17 16 15 15 15 15 15 15 14
22 22 23 23 23 23 23 22 22 22 22 22 22 22 22 22 22 23 21 20 19 19 18 18 18 18 19 19 18 18 18 17 17 17 17 16 16 15 14 14 14 14 14
22 23 23 23 23 23 22 22 22 22 22 22 22 22 22 22 22 22 22 21 21 18 17 18 18 18 18 18 18 18 18 17 17 17 17 16 16 16 16 15 14 13 14
22 22 23 23 23 23 22 22 21 22 21 21 22 22 22 22 22 22 22 21 21 20 18 17 18 17 17 18 18 18 17 17 17 17 16 16 16 16 15 15 15 14 14
22 22 22 23 22 22 21 21 21 21 21 21 21 21 21 22 22 22 22 21 20 21 18 17 17 17 17 17 18 17 17 17 17 17 16 16 16 15 15 15 14 14 14
22 22 22 22 22 21 21 21 21 21 21 20 21 21 21 21 22 22 21 21 21 20 21 17 17 17 17 17 17 17 17 17 16 16 16 16 16 16 16 15 15 14 14
22 22 22 21 22 21 20 20 20 20 20 20 20 20 21 21 21 21 21 20 20 20 21 19 17 17 17 17 16 17 17 16 16 16 16 16 16 15 15 15 15 14 14
22 22 22 22 21 21 20 20 20 20 19 19 19 19 19 20 20 21 20 20 20 19 19 19 17 17 17 16 16 17 16 16 17 17 15 15 15 15 15 15 14 14 14
22 22 22 21 20 20 20 20 20 19 19 19 19 18 19 19 20 20 20 20 20 19 18 17 16 16 16 17 16 16 16 16 16 16 15 15 15 14 15 15 14 14 14
21 21 21 20 20 20 20 20 19 19 19 18 18 18 18 18 19 19 19 19 19 19 18 17 16 16 15 16 16 16 16 16 16 16 16 16 16 15 14 15 14 14 14
21 20 20 20 20 19 19 19 19 19 19 18 18 18 18 18 18 18 18 18 18 18 18 18 18 17 16 16 17 17 16 16 16 16 16 15 15 15 15 15 14 15 15
21 20 19 20 19 19 19 19 19 19 18 18 18 18 18 18 18 18 18 18 18 18 18 18 17 16 16 16 16 16 16 16 15 15 15 14 14 14 14 14 14 15 15
20 20 20 19 19 20 19 19 19 19 18 18 17 17 18 18 18 17 18 18 17 17 16 16 16 16 16 16 15 15 15 15 15 15 15 15 14 14 15 15 14 15 14
20 20 19 19 20 20 19 19 19 19 18 18 17 17 17 17 17 17 17 17 17 17 17 16 16 16 16 15 15 16 15 15 14 14 15 15 14 14 14 15 15 15 14
Height
854 853 853 853 853 852 851 850 848 846 845 843 840 839 837 835 835 834 833 832 831 831 830 829 829 829 829 829 828 828 827 828 827 827 827 826 825 825 824 823 823 823 824
854 854 854 855 854 853 852 851 849 847 844 842 841 840 838 837 837 835 834 833 832 832 833 832 831 831 831 830 829 828 828 828 828 827 826 825 825 823 822 820 820 820 820
855 855 855 856 856 854 853 852 849 847 845 843 842 841 839 839 838 836 835 835 835 835 835 835 834 833 832 832 832 831 831 831 831 830 828 827 825 824 822 820 818 816 815
856 856 855 856 856 855 854 852 850 846 845 842 841 841 840 839 838 838 838 838 838 839 838 838 838 836 835 836 835 835 835 834 833 831 829 828 827 825 823 821 819 816 814
856 857 856 856 856 855 854 852 850 847 845 843 843 843 841 840 840 841 841 841 841 842 841 841 840 840 840 840 839 838 837 836 835 833 831 829 827 826 824 822 820 817 814
857 857 857 856 856 855 854 852 850 849 847 846 846 845 845 844 843 843 844 844 845 846 846 844 844 844 844 843 843 842 840 839 837 836 834 833 830 828 826 824 822 819 816
857 857 856 856 855 855 854 852 851 849 849 848 847 849 849 849 848 847 848 849 849 850 850 849 848 847 846 846 846 845 843 842 840 838 836 835 833 831 829 827 825 822 819
854 855 855 855 855 854 853 852 851 850 848 849 848 849 851 853 852 852 852 852 853 853 854 853 852 851 850 848 849 848 847 846 844 843 841 839 837 834 832 831 828 825 822
851 853 853 854 854 854 853 852 851 850 848 849 848 850 852 853 855 857 857 856 857 857 858 857 855 855 854 853 851 850 849 849 848 846 845 843 842 840 836 834 831 828 825
849 849 850 851 852 852 852 851 850 850 849 849 849 849 849 849 854 858 860 860 860 859 860 860 859 859 858 856 855 854 853 852 852 850 849 847 846 844 841 839 836 833 829
846 846 847 848 850 850 850 850 849 849 849 849 848 849 850 851 852 855 860 863 862 863 863 863 862 862 862 860 859 858 857 856 855 855 853 852 851 849 848 845 842 839 835
842 841 843 845 847 847 847 848 848 848 848 848 848 848 849 850 851 853 857 861 864 867 865 865 865 865 865 864 863 862 861 860 859 858 858 857 855 854 852 850 847 844 841
839 839 840 842 843 844 845 846 846 847 847 848 848 848 849 849 849 850 852 858 862 866 866 866 866 867 868 867 867 866 866 865 864 863 862 861 859 857 856 855 852 849 846
836 837 838 837 841 842 843 844 844 845 846 847 847 847 848 849 849 849 851 854 861 864 866 866 867 869 869 870 870 870 869 869 869 868 867 865 863 862 861 859 858 855 852
833 835 836 837 838 840 841 842 843 843 845 846 846 847 848 848 848 849 850 852 854 861 863 864 867 869 871 871 872 872 871 872 871 871 870 869 868 866 865 864 862 860 857
831 833 834 835 837 838 839 840 841 843 845 845 845 846 847 847 848 849 850 852 853 856 861 864 866 869 871 871 872 873 874 874 873 873 873 872 871 870 869 867 866 864 861
829 831 831 833 835 836 838 840 841 843 844 845 845 846 847 847 849 849 849 850 853 855 858 863 865 867 869 871 873 874 875 875 875 874 874 873 872 872 871 870 869 868 866
826 828 830 832 833 835 837 839 841 843 844 845 846 846 848 848 849 848 848 850 852 854 855 859 863 866 868 871 872 874 874 875 876 875 874 874 874 873 873 872 871 871 869
824 826 826 831 832 834 836 839 841 843 843 845 846 847 848 849 849 848 848 849 851 854 856 859 864 866 868 869 871 872 873 874 874 874 874 874 874 874 875 874 873 873 872
821 823 826 829 831 833 835 838 840 841 843 845 846 847 849 850 850 849 851 851 853 857 861 862 863 866 868 870 870 870 870 872 873 873 874 874 874 874 875 875 875 875 874
819 822 825 827 829 832 835 837 839 841 843 845 847 848 850 850 851 852 853 854 856 858 860 863 865 866 866 867 869 870 870 870 872 873 873 874 875 875 876 877 876 873 871
818 822 824 827 829 832 834 837 839 842 843 845 847 849 850 850 851 852 853 855 857 859 861 862 864 865 866 866 866 869 870 871 872 872 873 873 871 870 870 871 870 870 870
816 819 823 826 828 831 833 837 840 842 843 845 848 850 850 851 852 853 854 855 856 858 861 862 862 863 865 865 865 866 867 868 869 869 870 871 870 868 865 867 868 869 868
813 817 822 825 829 830 833 837 839 841 844 846 849 850 851 852 854 854 855 856 857 859 860 861 862 863 864 865 866 868 869 870 871 871 872 871 870 868 869 870 870 870 869
811 815 819 823 825 828 832 835 838 840 844 847 849 850 852 854 855 856 857 857 858 859 862 863 863 863 864 866 868 870 871 872 872 873 871 869 867 868 870 870 870 868 867
808 812 817 820 823 826 830 833 837 840 843 847 848 850 852 854 855 856 858 858 859 859 859 861 863 865 866 867 868 868 869 870 871 872 870 871 871 871 869 868 867 866 864
Wind_Speed
5 6 5 6 7 9 9 9 12 14 14 12 8 13 11 11 7 13 13 14 7 8 14 15 13 13 12 12 12 10 10 9 8 7 8 9 10 13 14 16 20 23 27
3 4 5 6 6 8 8 11 13 15 15 12 12 11 9 9 14 14 14 15 16 10 13 16 16 15 16 16 15 16 15 12 12 11 10 9 10 10 12 12 14 19 22
3 4 5 6 6 7 8 11 13 16 15 13 13 12 7 11 13 14 14 15 14 12 13 15 16 17 19 20 20 20 19 17 17 16 17 15 14 13 12 11 9 9 12
4 5 5 5 4 6 10 12 16 17 15 15 12 14 13 11 11 14 15 14 14 14 15 16 19 21 22 21 20 19 18 18 17 17 18 18 16 17 16 15 14 13 14
4 3 3 4 3 7 11 15 17 15 14 13 13 15 16 14 15 15 16 16 15 16 16 15 19 20 20 20 21 21 21 20 18 19 19 19 20 19 17 18 17 16 16
3 4 1 1 4 7 11 16 17 14 10 11 15 19 19 20 20 19 18 17 17 18 18 18 18 21 22 21 20 19 19 19 20 21 21 21 21 21 21 20 20 19 18
5 3 4 4 5 8 11 14 16 15 5 9 3 13 21 21 20 19 18 19 18 18 19 19 20 21 21 22 22 21 21 20 19 18 18 18 20 20 21 22 23 25 25
10 7 7 7 8 9 9 11 13 13 7 9 4 2 2 6 20 17 19 19 19 20 20 21 22 22 21 20 20 20 20 19 19 20 22 22 22 22 22 22 22 23 26
13 13 10 9 9 9 9 11 12 12 7 6 5 1 1 1 3 11 15 16 18 21 20 21 23 23 22 22 21 20 20 20 20 20 21 21 22 23 24 25 25 25 24
12 12 15 13 11 10 9 12 12 12 4 4 2 2 1 4 2 2 9 13 16 19 19 20 22 23 23 23 21 21 21 21 22 22 23 23 24 24 24 25 27 29 29
13 14 16 16 16 13 12 12 12 8 4 3 0 1 1 3 6 3 2 3 14 15 17 18 19 20 22 23 22 21 22 22 23 24 25 25 25 26 27 28 28 29 30
13 14 19 18 15 14 14 10 9 6 4 3 1 1 3 3 5 4 3 3 5 8 12 13 15 16 18 21 22 22 24 26 27 26 25 26 27 28 28 27 28 28 29
12 9 11 13 12 11 10 9 7 5 4 3 2 3 5 4 5 7 8 5 3 4 4 9 9 11 14 18 21 22 23 24 26 27 28 27 26 28 28 28 28 28 28
11 8 7 8 9 9 8 8 8 6 6 4 3 2 3 4 4 6 10 11 3 3 2 4 5 7 10 14 16 17 19 19 21 23 25 26 28 27 27 27 27 27 28
10 8 7 9 10 12 10 11 10 7 6 5 4 3 4 4 5 5 9 15 9 3 2 5 4 6 7 10 11 14 15 15 16 18 20 22 23 25 26 27 27 27 29
8 7 5 5 5 9 10 10 9 7 5 4 3 4 5 6 5 5 7 13 7 7 3 4 3 8 7 8 8 9 12 11 12 13 14 16 18 20 22 24 25 26 27
10 8 7 7 8 9 10 9 9 6 5 3 4 4 5 6 5 5 4 7 12 7 5 4 5 8 8 8 8 6 8 8 8 8 8 10 13 16 18 21 22 23 25
14 12 9 10 9 10 11 11 7 7 5 5 6 7 5 5 4 3 4 5 8 10 9 11 8 6 7 7 7 5 3 4 5 5 4 6 8 11 13 15 16 18 19
15 14 13 13 11 12 12 11 8 8 6 6 6 6 6 4 2 1 2 6 11 11 10 13 7 4 2 7 8 7 5 2 2 1 0 2 3 5 8 10 12 14 16
15 15 18 16 12 12 13 11 10 8 8 7 6 6 5 3 3 4 7 10 14 14 14 13 10 7 5 5 3 5 6 4 1 1 2 1 1 1 5 6 10 11 13
16 16 16 14 14 13 14 13 10 9 8 8 8 6 5 4 4 3 7 10 13 14 15 11 7 4 3 3 2 1 5 7 6 5 4 4 3 3 3 4 7 8 10
18 17 14 16 15 16 16 12 10 9 8 9 10 8 7 7 6 4 5 10 12 15 13 8 5 4 4 4 3 2 6 4 1 2 1 6 6 6 5 8 5 4 7
17 19 17 17 16 18 15 13 10 7 10 12 11 10 10 9 7 7 8 9 11 9 7 6 6 7 8 5 4 3 5 3 1 2 2 3 9 6 2 10 6 1 5
20 19 19 18 19 16 16 14 11 9 12 13 11 10 10 10 8 8 9 11 10 8 7 8 9 11 8 6 4 6 7 6 4 5 3 2 7 3 1 6 6 2 5
22 21 21 21 19 17 17 16 14 12 14 15 12 9 8 7 8 7 8 13 15 16 14 12 12 11 9 8 8 7 5 4 2 2 2 0 1 1 3 4 6 9 11
22 22 22 20 18 18 18 18 17 14 17 17 14 10 10 9 9 9 9 12 15 15 14 12 9 7 5 4 3 3 6 6 5 3 3 2 1 1 2 1 2 7 10
Wind_Direction
18 35 33 32 28 33 45 18 8 3 359 1 351 357 19 34 36 20 22 25 29 32 25 14 16 17 23 29 26 20 14 9 10 1 339 319 300 294 293 267 251 246 244
65 54 47 56 41 58 24 12 7 4 3 2 8 2 23 49 41 35 33 40 41 50 28 27 28 36 45 50 48 47 48 49 39 31 20 5 354 336 322 306 285 275 265
96 88 88 72 65 38 12 6 4 358 5 12 16 17 30 51 47 36 48 61 52 50 43 44 48 55 59 58 57 58 57 54 49 46 42 36 30 23 16 8 350 321 306
128 106 103 95 64 24 6 7 5 357 14 14 28 45 53 50 48 51 69 64 59 61 67 64 61 58 58 56 56 56 56 56 54 50 45 37 32 28 29 31 28 25 14
166 138 116 92 38 14 8 10 11 5 18 34 60 51 51 62 62 72 72 69 66 62 62 65 71 64 62 60 59 59 57 60 51 50 48 46 39 34 32 30 27 23 18
164 201 191 347 349 3 3 7 9 12 31 58 72 65 61 67 72 73 72 72 70 65 63 67 70 71 61 58 58 58 58 59 54 52 49 49 47 46 46 41 33 25 22
237 239 259 288 317 345 360 2 1 1 28 37 113 76 67 67 71 73 78 80 75 70 69 67 66 64 66 62 57 57 60 59 60 55 52 47 46 45 46 45 44 39 34
244 248 264 280 297 320 346 354 1 349 13 19 55 81 47 60 60 71 78 78 77 76 74 72 69 65 62 64 59 58 60 59 56 56 54 51 49 48 47 43 43 44 42
255 250 253 271 285 308 335 339 348 345 349 357 10 75 125 131 99 64 69 73 79 78 76 74 71 66 62 61 60 61 62 63 61 60 58 54 51 49 49 49 49 47 44
249 250 242 255 271 288 314 326 333 332 332 340 340 1 255 140 133 128 66 80 82 80 79 78 72 67 60 59 63 65 66 67 66 65 63 61 56 54 52 51 49 49 49
255 255 245 245 258 275 293 307 318 319 302 308 325 203 145 116 120 132 119 115 81 81 82 81 77 72 65 64 66 68 70 71 69 67 65 62 58 55 53 52 51 51 52
264 259 233 239 255 274 281 284 302 295 292 279 252 251 220 184 166 145 119 126 111 86 85 91 84 79 76 75 74 73 79 80 79 75 71 65 63 60 57 54 53 52 51
251 247 231 243 260 265 261 260 277 268 257 270 302 265 256 225 181 167 143 129 135 140 107 91 86 88 84 83 81 81 82 84 81 79 75 72 68 65 61 56 55 53 52
250 251 250 256 243 250 248 250 248 234 229 240 286 299 260 195 184 198 170 157 123 105 146 139 131 101 102 94 91 88 88 86 82 77 75 73 70 68 64 60 57 55 53
248 241 258 244 244 245 248 250 231 215 216 239 255 275 234 189 195 199 204 186 139 140 182 188 144 141 122 112 99 94 91 89 86 79 73 71 70 69 67 65 62 60 55
245 239 208 223 235 228 244 230 199 193 213 224 245 252 229 182 162 164 203 207 182 158 146 172 150 160 145 141 118 101 91 89 85 81 76 72 70 69 67 66 63 58 53
235 217 234 248 236 232 224 191 181 189 194 189 196 197 189 172 177 174 180 199 218 192 136 131 137 159 160 164 147 121 95 83 78 78 82 75 70 71 66 62 59 53 49
222 224 238 239 229 217 191 185 187 183 185 181 182 188 169 156 180 224 231 222 211 191 159 140 140 153 180 175 177 165 141 83 56 49 63 69 65 64 64 61 57 53 45
214 213 218 216 184 175 179 183 184 180 172 179 177 185 186 181 184 167 181 155 161 168 152 145 133 116 138 196 194 193 199 159 29 38 71 91 93 76 77 70 64 53 45
209 204 193 187 182 184 183 181 182 176 178 181 181 181 179 162 139 131 145 139 147 144 136 141 131 116 100 102 164 200 189 180 67 109 162 170 221 114 92 84 65 47 37
193 188 187 182 181 187 187 180 178 179 177 177 177 169 164 143 117 149 178 165 163 154 156 149 124 139 152 163 193 200 157 139 93 85 106 63 16 258 177 99 73 51 31
189 181 187 188 187 190 182 179 183 184 182 182 164 154 144 129 123 145 178 185 175 173 169 165 173 173 176 173 170 174 175 167 164 38 58 35 13 12 191 158 138 69 33
195 198 188 191 192 185 178 178 183 195 185 169 162 147 124 119 131 127 128 147 167 178 187 206 204 160 161 171 176 209 214 215 171 325 291 344 351 340 218 179 179 116 30
205 195 191 195 190 181 181 186 186 184 175 172 160 147 130 124 127 137 152 161 158 151 141 134 141 139 145 160 169 147 134 128 99 55 46 16 349 17 124 196 208 259 322
202 198 200 194 190 185 190 193 195 188 183 180 172 163 156 154 162 154 165 153 139 130 127 128 129 122 110 116 145 168 175 160 110 86 57 188 344 117 356 279 246 253 275
206 200 200 200 201 198 197 200 203 199 193 193 193 188 190 200 202 185 188 170 157 158 159 163 160 153 140 128 126 163 200 199 180 202 207 196 120 264 259 229 305 287 289